Flag for Canada Weather past 2 weeks in Prince Rupert, British Columbia, Canada

Now
45 °F

Mostly cloudy.


Feels Like: 43 °F
Forecast: 38 / 44 °F
Wind: 3 mph from Northeast

Location: Prince Rupert

Current Time: Jan 26, 2015 at 2:54:54 AM

Latest Report: Jan 26, 2015 at 2:00 AM


Visibility: 9 mi

Pressure: 29.90 "Hg

Humidity: 93%

Dew point: 43 °F

Location of Prince RupertLocation

Historic Weather in Prince Rupert — Graph

°F

Prince Rupert temperature yesterday

Maximum temperature yesterday: 50 °F (at 12:00 AM)
Minimum temperature yesterday: 45 °F (at 6:03 PM)
Average temperature yesterday: 47 °F

Past Weeks' High & Low Weather Summary

 TemperatureHumidityPressure
High55 °F (Jan 14, 3:00 PM)100% (Jan 11, 1:00 AM)30.23 "Hg (Jan 11, 1:00 AM)
Low32 °F (Jan 11, 5:59 AM)51% (Jan 14, 6:00 PM)29.31 "Hg (Jan 18, 5:00 AM)
Average46 °F87%29.87 "Hg
* Reported Jan 11 1:00 AM — Jan 26 1:00 AM, Prince Rupert, Weather by CustomWeather, © 2014

Note: Actual official high and low records may vary slightly from our data, if they occured in-between our weather recording intervals... More about our weather records

Advertising

Prince Rupert weather history for previous 24 hours

 ConditionsComfort  
Time TempWeatherWind HumidityBarometerVisibility
1:00 AM
Jan 26
45 °FOvercast.6 mph100%29.92 "Hg9 mi
12:00 AM45 °FOvercast.2 mph93%29.91 "Hg9 mi
11:00 PM
Jan 25
45 °FMostly cloudy.5 mph100%29.92 "Hg9 mi
10:00 PM45 °FOvercast.No wind93%29.92 "Hg9 mi
9:00 PM45 °FOvercast.6 mph100%29.92 "Hg9 mi
8:00 PM45 °FOvercast.7 mph100%29.92 "Hg9 mi
7:04 PM45 °FPassing clouds.2 mph100%29.93 "Hg9 mi
6:46 PM45 °FLight rain. Fog.3 mph100%29.93 "Hg6 mi
6:03 PM45 °FLight rain. Fog.3 mph100%29.93 "Hg4 mi
5:00 PM46 °FMostly cloudy.No wind93%29.92 "Hg9 mi
4:00 PM46 °FLight rain. Fog.6 mph93%29.93 "Hg2 mi
3:00 PM48 °FMostly cloudy.3 mph87%29.93 "Hg9 mi
2:00 PM48 °FCloudy.6 mph87%29.96 "Hg9 mi
1:00 PM48 °FLight rain. Mostly cloudy.5 mph87%29.94 "Hg9 mi
12:53 PM48 °FLight rain. Cloudy.8 mph87%29.94 "Hg8 mi
12:00 PM48 °FCloudy.8 mph87%29.94 "Hg9 mi
11:47 AM48 °FCloudy.8 mph87%29.94 "Hg9 mi
11:00 AM48 °FOvercast.8 mph87%29.94 "Hg9 mi
10:04 AM48 °FMostly cloudy.8 mph87%29.93 "Hg9 mi
10:03 AM48 °FCloudy.7 mph87%29.93 "Hg9 mi
9:03 AM48 °FCloudy.7 mph87%29.92 "Hg9 mi
8:00 AM48 °FMostly cloudy.8 mph87%29.91 "Hg9 mi
7:49 AM48 °FMostly cloudy.8 mph87%29.91 "Hg9 mi
7:00 AM48 °FOvercast.8 mph87%29.90 "Hg9 mi
6:02 AM48 °FOvercast.6 mph87%29.90 "Hg9 mi
6:00 AM48 °FMostly cloudy.6 mph94%29.90 "Hg9 mi
5:00 AM48 °FMostly cloudy.8 mph87%29.90 "Hg9 mi
4:00 AM48 °FMostly cloudy.6 mph87%29.89 "Hg9 mi
3:00 AM48 °FLight rain. Mostly cloudy.7 mph87%29.88 "Hg9 mi
2:58 AM48 °FLight rain. Overcast.6 mph87%29.88 "Hg9 mi
2:00 AM50 °FMostly cloudy.7 mph82%29.84 "Hg9 mi
Weather by CustomWeather, © 2014

See weather overviewHow to use our weather pages